Flag for Germany Weather past 2 weeks in Bad Oldesloe, Schleswig-Holstein, Germany

Now
59 °F

Passing clouds.


Feels Like: 58 °F
Forecast: 48 / 57 °F
Wind: 7 mph from South

Location: Luebeck-Blankensee

Current Time: May 29, 2015 at 8:48:09 PM

Latest Report: May 29, 2015 at 8:20 PM


Visibility: N/A

Pressure: 29.65 "Hg

Humidity: 59%

Dew point: 45 °F

Location of Bad OldesloeLocation

Historic Weather in Bad Oldesloe — Graph

°F

Bad Oldesloe temperature yesterday

Maximum temperature yesterday: 63 °F (at 12:50 PM)
Minimum temperature yesterday: 48 °F (at 9:50 PM)
Average temperature yesterday: 55 °F

Past Weeks' High & Low Weather Summary

 TemperatureHumidityPressure
High66 °F (May 22, 2:20 PM)100% (May 19, 6:50 AM)30.30 "Hg (May 19, 6:50 AM)
Low41 °F (May 24, 6:20 AM)39% (May 29, 3:50 PM)29.56 "Hg (May 19, 6:20 AM)
Average54 °F68%30.00 "Hg
* Reported May 14 7:20 PM — May 29 7:20 PM, Bad Oldesloe, Weather by CustomWeather, © 2015

Note: Actual official high and low records may vary slightly from our data, if they occured in-between our weather recording intervals... More about our weather records

Advertising

Bad Oldesloe weather history for previous 24 hours

 ConditionsComfort  
Time TempWeatherWind HumidityBarometerVisibility
7:20 PM
Fri, May 29
61 °FPassing clouds.7 mph52%29.68 "HgN/A
6:50 PM61 °FPassing clouds.8 mph52%29.68 "HgN/A
6:20 PM63 °FPassing clouds.9 mph49%29.68 "HgN/A
5:50 PM63 °FPassing clouds.12 mph42%29.71 "HgN/A
5:20 PM63 °FPassing clouds.9 mph42%29.71 "HgN/A
4:50 PM63 °FPassing clouds.10 mph42%29.74 "HgN/A
4:20 PM63 °FPassing clouds.10 mph42%29.74 "HgN/A
3:50 PM63 °FPassing clouds.10 mph39%29.77 "HgN/A
3:20 PM61 °FPassing clouds.9 mph45%29.77 "HgN/A
2:50 PM61 °FPassing clouds.8 mph48%29.80 "HgN/A
2:20 PM61 °FRefreshingly cool.9 mph52%29.80 "HgN/A
1:50 PM59 °FBroken clouds.10 mph48%29.83 "HgN/A
1:20 PM59 °FBroken clouds.8 mph51%29.83 "HgN/A
12:50 PM59 °FBroken clouds.10 mph55%29.83 "HgN/A
12:20 PM57 °FBroken clouds.9 mph59%29.86 "HgN/A
11:50 AM59 °FBroken clouds.9 mph55%29.86 "HgN/A
11:20 AM57 °FScattered clouds.10 mph63%29.86 "HgN/A
10:50 AM55 °FPartly sunny.10 mph63%29.89 "HgN/A
10:20 AM54 °FPartly sunny.9 mph72%29.89 "HgN/A
9:50 AM54 °FScattered clouds.9 mph72%29.89 "HgN/A
9:20 AM54 °FPassing clouds.8 mph72%29.89 "HgN/A
8:50 AM52 °FPassing clouds.8 mph77%29.89 "HgN/A
8:20 AM52 °FPassing clouds.7 mph77%29.89 "HgN/A
7:50 AM48 °FSunny.7 mph87%29.89 "Hg10 mi
7:20 AM46 °FPassing clouds.5 mph87%29.89 "HgN/A
6:50 AM45 °FSunny.2 mph87%29.89 "Hg10 mi
6:20 AM43 °FSunny.2 mph93%29.89 "Hg10 mi
9:50 PM
Thu, May 28
48 °FPassing clouds.6 mph82%29.89 "HgN/A
9:20 PM52 °FPassing clouds.9 mph72%29.86 "HgN/A
8:50 PM52 °FScattered clouds.5 mph72%29.86 "HgN/A
8:20 PM54 °FScattered clouds.8 mph72%29.86 "HgN/A
Weather by CustomWeather, © 2015

See weather overviewHow to use our weather pages